Time,TemperatureF,DewpointF,PressureIn,WindDirection,WindDirectionDegrees,WindSpeedMPH,WindSpeedGustMPH,Humidity,HourlyPrecipIn,Conditions,Clouds,dailyrainin,SoftwareType,DateUTC
2013-01-09 00:03:00,29.0,26.0,30.23,SSE,163,0.0,3.0,90,0.00,,,0.00,,2013-01-09 05:03:00,
2013-01-09 00:12:00,29.0,26.0,30.23,SSE,163,0.0,3.0,90,0.00,,,0.00,,2013-01-09 05:12:00,
2013-01-09 00:22:00,29.0,26.0,30.23,SSE,163,0.0,3.0,90,0.00,,,0.00,,2013-01-09 05:22:00,
2013-01-09 00:33:00,29.0,26.0,30.22,SSE,167,1.0,4.0,89,0.00,,,0.00,,2013-01-09 05:33:00,
2013-01-09 00:42:00,29.0,26.0,30.22,SSE,167,1.0,4.0,89,0.00,,,0.00,,2013-01-09 05:42:00,
2013-01-09 00:53:00,30.0,27.0,30.21,South,170,0.0,2.0,89,0.00,,,0.00,,2013-01-09 05:53:00,
2013-01-09 01:02:00,30.0,27.0,30.20,SSE,157,2.0,4.0,89,0.00,,,0.00,,2013-01-09 06:02:00,
2013-01-09 01:12:00,30.0,27.0,30.20,SSE,157,2.0,4.0,89,0.00,,,0.00,,2013-01-09 06:12:00,
2013-01-09 01:22:00,30.0,27.0,30.19,SSE,157,1.0,3.0,89,0.00,,,0.00,,2013-01-09 06:22:00,
2013-01-09 01:32:00,30.0,27.0,30.18,SSE,157,2.0,4.0,89,0.00,,,0.00,,2013-01-09 06:32:00,
2013-01-09 01:42:00,30.0,27.0,30.18,SSE,157,2.0,4.0,89,0.00,,,0.00,,2013-01-09 06:42:00,
2013-01-09 01:52:00,30.0,27.0,30.18,South,170,2.0,5.0,90,0.00,,,0.00,,2013-01-09 06:52:00,
2013-01-09 02:02:00,30.0,27.0,30.18,South,177,1.0,4.0,88,0.00,,,0.00,,2013-01-09 07:02:00,
2013-01-09 02:12:00,30.0,27.0,30.18,South,177,1.0,4.0,88,0.00,,,0.00,,2013-01-09 07:12:00,
2013-01-09 02:22:00,31.0,28.0,30.17,South,173,2.0,6.0,89,0.00,,,0.00,,2013-01-09 07:22:00,
2013-01-09 02:32:00,31.0,28.0,30.18,South,175,2.0,7.0,89,0.00,,,0.00,,2013-01-09 07:32:00,
2013-01-09 02:42:00,31.0,28.0,30.18,South,175,2.0,7.0,89,0.00,,,0.00,,2013-01-09 07:42:00,
2013-01-09 02:52:00,31.0,28.0,30.18,South,176,2.0,5.0,89,0.00,,,0.00,,2013-01-09 07:52:00,
2013-01-09 03:02:00,31.0,28.0,30.18,South,177,2.0,5.0,88,0.00,,,0.00,,2013-01-09 08:02:00,
2013-01-09 03:12:00,31.0,28.0,30.18,South,177,2.0,5.0,88,0.00,,,0.00,,2013-01-09 08:12:00,
2013-01-09 03:22:00,31.0,28.0,30.18,SSW,194,3.0,7.0,89,0.00,,,0.00,,2013-01-09 08:22:00,
2013-01-09 03:32:00,32.0,29.0,30.17,SSW,204,2.0,6.0,89,0.00,,,0.00,,2013-01-09 08:32:00,
2013-01-09 03:42:00,32.0,29.0,30.17,SSW,204,2.0,6.0,89,0.00,,,0.00,,2013-01-09 08:42:00,
2013-01-09 03:53:00,33.0,30.0,30.17,South,188,2.0,8.0,88,0.00,,,0.00,,2013-01-09 08:53:00,
2013-01-09 04:02:00,33.0,30.0,30.16,South,184,3.0,8.0,88,0.00,,,0.00,,2013-01-09 09:02:00,
2013-01-09 04:12:00,33.0,30.0,30.16,South,184,3.0,8.0,88,0.00,,,0.00,,2013-01-09 09:12:00,
2013-01-09 04:22:00,33.0,30.0,30.15,South,190,3.0,9.0,88,0.00,,,0.00,,2013-01-09 09:22:00,
2013-01-09 04:32:00,34.0,31.0,30.16,South,175,4.0,11.0,88,0.00,,,0.00,,2013-01-09 09:32:00,
2013-01-09 04:42:00,34.0,31.0,30.16,South,175,4.0,11.0,88,0.00,,,0.00,,2013-01-09 09:42:00,
2013-01-09 04:53:00,35.0,32.0,30.15,SSW,211,0.0,7.0,88,0.00,,,0.00,,2013-01-09 09:53:00,
2013-01-09 05:02:00,36.0,33.0,30.15,SW,225,1.0,10.0,88,0.00,,,0.00,,2013-01-09 10:02:00,
2013-01-09 05:12:00,36.0,33.0,30.15,SW,225,1.0,10.0,88,0.00,,,0.00,,2013-01-09 10:12:00,
2013-01-09 05:22:00,37.0,34.0,30.14,South,182,2.0,11.0,87,0.00,,,0.00,,2013-01-09 10:22:00,
2013-01-09 05:32:00,37.0,33.0,30.15,SSW,192,4.0,9.0,86,0.00,,,0.00,,2013-01-09 10:32:00,
2013-01-09 05:42:00,37.0,33.0,30.15,SSW,192,4.0,9.0,86,0.00,,,0.00,,2013-01-09 10:42:00,
2013-01-09 05:52:00,38.0,34.0,30.15,SSW,207,4.0,7.0,86,0.00,,,0.00,,2013-01-09 10:52:00,
2013-01-09 06:02:00,38.0,34.0,30.16,SSW,209,4.0,8.0,85,0.00,,,0.00,,2013-01-09 11:02:00,
2013-01-09 06:12:00,38.0,34.0,30.16,SSW,209,4.0,8.0,85,0.00,,,0.00,,2013-01-09 11:12:00,
2013-01-09 06:22:00,38.0,34.0,30.15,South,181,3.0,9.0,85,0.00,,,0.00,,2013-01-09 11:22:00,
2013-01-09 06:33:00,39.0,35.0,30.15,SW,215,4.0,8.0,85,0.00,,,0.00,,2013-01-09 11:33:00,
2013-01-09 06:42:00,39.0,35.0,30.15,SW,215,4.0,8.0,85,0.00,,,0.00,,2013-01-09 11:42:00,
2013-01-09 06:53:00,39.0,35.0,30.14,South,184,4.0,8.0,84,0.00,,,0.00,,2013-01-09 11:53:00,
2013-01-09 07:03:00,40.0,35.0,30.14,SW,219,4.0,12.0,83,0.00,,,0.00,,2013-01-09 12:03:00,
2013-01-09 07:12:00,40.0,35.0,30.14,SW,219,4.0,12.0,83,0.00,,,0.00,,2013-01-09 12:12:00,
2013-01-09 07:23:00,41.0,36.0,30.15,SW,229,6.0,12.0,81,0.00,,,0.00,,2013-01-09 12:23:00,
2013-01-09 07:33:00,42.0,36.0,30.16,WSW,244,6.0,16.0,79,0.00,,,0.00,,2013-01-09 12:33:00,
2013-01-09 07:43:00,42.0,36.0,30.16,WSW,244,6.0,16.0,79,0.00,,,0.00,,2013-01-09 12:43:00,
2013-01-09 07:53:00,42.0,36.0,30.16,WSW,244,6.0,16.0,79,0.00,,,0.00,,2013-01-09 12:53:00,
2013-01-09 08:03:00,42.0,36.0,30.17,SW,229,6.0,21.0,79,0.00,,,0.00,,2013-01-09 13:03:00,
2013-01-09 08:12:00,42.0,36.0,30.17,SW,229,6.0,21.0,79,0.00,,,0.00,,2013-01-09 13:12:00,
2013-01-09 08:23:00,41.0,35.0,30.18,West,267,7.0,18.0,80,0.00,,,0.00,,2013-01-09 13:23:00,
2013-01-09 08:33:00,41.0,36.0,30.19,SSW,205,8.0,15.0,81,0.00,,,0.00,,2013-01-09 13:33:00,
2013-01-09 08:43:00,41.0,36.0,30.19,SSW,205,8.0,15.0,81,0.00,,,0.00,,2013-01-09 13:43:00,
2013-01-09 08:53:00,41.0,36.0,30.19,SW,224,6.0,14.0,81,0.00,,,0.00,,2013-01-09 13:53:00,
2013-01-09 09:03:00,41.0,36.0,30.20,SW,232,7.0,14.0,81,0.00,,,0.00,,2013-01-09 14:03:00,
2013-01-09 09:12:00,41.0,36.0,30.20,SW,232,7.0,14.0,81,0.00,,,0.00,,2013-01-09 14:12:00,
2013-01-09 09:23:00,41.0,36.0,30.20,SW,235,7.0,15.0,81,0.00,,,0.00,,2013-01-09 14:23:00,
2013-01-09 09:33:00,41.0,35.0,30.21,West,271,6.0,15.0,80,0.00,,,0.00,,2013-01-09 14:33:00,
2013-01-09 09:43:00,41.0,35.0,30.21,West,271,6.0,15.0,80,0.00,,,0.00,,2013-01-09 14:43:00,
2013-01-09 09:53:00,41.0,35.0,30.21,WSW,251,7.0,15.0,79,0.00,,,0.00,,2013-01-09 14:53:00,
2013-01-09 10:03:00,42.0,36.0,30.22,WSW,240,5.0,14.0,78,0.00,,,0.00,,2013-01-09 15:03:00,
2013-01-09 10:13:00,42.0,36.0,30.22,WSW,240,5.0,14.0,78,0.00,,,0.00,,2013-01-09 15:13:00,
2013-01-09 10:23:00,42.0,35.0,30.23,SW,234,5.0,16.0,77,0.00,,,0.00,,2013-01-09 15:23:00,
2013-01-09 10:33:00,42.0,35.0,30.23,SW,229,8.0,20.0,76,0.00,,,0.00,,2013-01-09 15:33:00,
2013-01-09 10:43:00,42.0,35.0,30.23,SW,229,8.0,20.0,76,0.00,,,0.00,,2013-01-09 15:43:00,
2013-01-09 10:53:00,42.0,35.0,30.23,WSW,241,8.0,19.0,75,0.00,,,0.00,,2013-01-09 15:53:00,
2013-01-09 11:03:00,42.0,35.0,30.24,WSW,241,8.0,16.0,75,0.00,,,0.00,,2013-01-09 16:03:00,
2013-01-09 11:12:00,42.0,35.0,30.24,WSW,241,8.0,16.0,75,0.00,,,0.00,,2013-01-09 16:12:00,
2013-01-09 11:23:00,42.0,35.0,30.24,WSW,241,8.0,16.0,75,0.00,,,0.00,,2013-01-09 16:23:00,
2013-01-09 11:33:00,43.0,35.0,30.24,WSW,245,8.0,14.0,73,0.00,,,0.00,,2013-01-09 16:33:00,
2013-01-09 11:43:00,43.0,35.0,30.24,WSW,245,8.0,14.0,73,0.00,,,0.00,,2013-01-09 16:43:00,
2013-01-09 11:53:00,43.0,35.0,30.25,SW,234,8.0,13.0,72,0.00,,,0.00,,2013-01-09 16:53:00,
2013-01-09 12:03:00,43.0,35.0,30.24,SSW,211,7.0,13.0,72,0.00,,,0.00,,2013-01-09 17:03:00,
2013-01-09 12:12:00,43.0,35.0,30.24,SSW,211,7.0,13.0,72,0.00,,,0.00,,2013-01-09 17:12:00,
2013-01-09 12:23:00,43.0,34.0,30.24,WSW,238,5.0,13.0,71,0.00,,,0.00,,2013-01-09 17:23:00,
2013-01-09 12:33:00,44.0,34.0,30.24,SW,232,9.0,15.0,69,0.00,,,0.00,,2013-01-09 17:33:00,
2013-01-09 12:43:00,44.0,34.0,30.24,SW,232,9.0,15.0,69,0.00,,,0.00,,2013-01-09 17:43:00,
2013-01-09 12:53:00,44.0,34.0,30.24,WSW,252,9.0,16.0,68,0.00,,,0.00,,2013-01-09 17:53:00,
2013-01-09 13:03:00,44.0,34.0,30.23,WSW,250,7.0,15.0,67,0.00,,,0.00,,2013-01-09 18:03:00,
2013-01-09 13:12:00,44.0,34.0,30.23,WSW,250,7.0,15.0,67,0.00,,,0.00,,2013-01-09 18:12:00,
2013-01-09 13:24:00,44.0,34.0,30.23,WSW,258,7.0,13.0,68,0.00,,,0.00,,2013-01-09 18:24:00,
2013-01-09 13:33:00,45.0,35.0,30.23,WSW,241,6.0,15.0,67,0.00,,,0.00,,2013-01-09 18:33:00,
2013-01-09 13:43:00,45.0,35.0,30.23,WSW,241,6.0,15.0,67,0.00,,,0.00,,2013-01-09 18:43:00,
2013-01-09 13:53:00,45.0,35.0,30.24,SW,231,8.0,17.0,67,0.00,,,0.00,,2013-01-09 18:53:00,
2013-01-09 14:03:00,45.0,34.0,30.24,West,275,8.0,17.0,66,0.00,,,0.00,,2013-01-09 19:03:00,
2013-01-09 14:13:00,45.0,34.0,30.24,West,275,8.0,17.0,66,0.00,,,0.00,,2013-01-09 19:13:00,
2013-01-09 14:23:00,45.0,34.0,30.25,West,265,8.0,16.0,65,0.00,,,0.00,,2013-01-09 19:23:00,
2013-01-09 14:33:00,46.0,35.0,30.27,WSW,246,9.0,18.0,64,0.00,,,0.00,,2013-01-09 19:33:00,
2013-01-09 14:43:00,46.0,35.0,30.27,WSW,246,9.0,18.0,64,0.00,,,0.00,,2013-01-09 19:43:00,
2013-01-09 14:53:00,46.0,35.0,30.27,WSW,248,6.0,14.0,64,0.00,,,0.00,,2013-01-09 19:53:00,
2013-01-09 15:03:00,46.0,35.0,30.27,West,269,6.0,19.0,65,0.00,,,0.00,,2013-01-09 20:03:00,
2013-01-09 15:12:00,46.0,35.0,30.27,West,269,6.0,19.0,65,0.00,,,0.00,,2013-01-09 20:12:00,
2013-01-09 15:23:00,46.0,34.0,30.29,WSW,251,9.0,16.0,63,0.00,,,0.00,,2013-01-09 20:23:00,
2013-01-09 15:33:00,46.0,34.0,30.29,SW,223,7.0,16.0,62,0.00,,,0.00,,2013-01-09 20:33:00,
2013-01-09 15:43:00,46.0,34.0,30.29,SW,223,7.0,16.0,62,0.00,,,0.00,,2013-01-09 20:43:00,
2013-01-09 15:53:00,45.0,33.0,30.28,WSW,257,7.0,15.0,62,0.00,,,0.00,,2013-01-09 20:53:00,
2013-01-09 16:03:00,45.0,33.0,30.29,West,281,6.0,15.0,62,0.00,,,0.00,,2013-01-09 21:03:00,
2013-01-09 16:13:00,45.0,33.0,30.29,West,281,6.0,15.0,62,0.00,,,0.00,,2013-01-09 21:13:00,
2013-01-09 16:23:00,45.0,33.0,30.29,West,281,6.0,15.0,62,0.00,,,0.00,,2013-01-09 21:23:00,
2013-01-09 16:33:00,45.0,33.0,30.30,WSW,237,8.0,18.0,62,0.00,,,0.00,,2013-01-09 21:33:00,
2013-01-09 16:43:00,45.0,33.0,30.30,WSW,237,8.0,18.0,62,0.00,,,0.00,,2013-01-09 21:43:00,
2013-01-09 16:52:00,45.0,33.0,30.30,WSW,237,8.0,18.0,62,0.00,,,0.00,,2013-01-09 21:52:00,
2013-01-09 17:03:00,44.0,33.0,30.32,WSW,242,7.0,13.0,65,0.00,,,0.00,,2013-01-09 22:03:00,
2013-01-09 17:12:00,44.0,33.0,30.32,WSW,242,7.0,13.0,65,0.00,,,0.00,,2013-01-09 22:12:00,
2013-01-09 17:23:00,43.0,32.0,30.33,West,266,4.0,15.0,66,0.00,,,0.00,,2013-01-09 22:23:00,
2013-01-09 17:33:00,43.0,33.0,30.34,WNW,288,3.0,8.0,68,0.00,,,0.00,,2013-01-09 22:33:00,
2013-01-09 17:43:00,43.0,33.0,30.34,WNW,288,3.0,8.0,68,0.00,,,0.00,,2013-01-09 22:43:00,
2013-01-09 17:52:00,43.0,33.0,30.34,WNW,288,3.0,8.0,68,0.00,,,0.00,,2013-01-09 22:52:00,
2013-01-09 18:03:00,42.0,33.0,30.35,West,263,3.0,9.0,71,0.00,,,0.00,,2013-01-09 23:03:00,
2013-01-09 18:13:00,42.0,33.0,30.35,West,263,3.0,9.0,71,0.00,,,0.00,,2013-01-09 23:13:00,
2013-01-09 18:22:00,41.0,33.0,30.35,SW,223,3.0,8.0,72,0.00,,,0.00,,2013-01-09 23:22:00,
2013-01-09 18:33:00,40.0,32.0,30.35,SW,216,3.0,9.0,74,0.00,,,0.00,,2013-01-09 23:33:00,
2013-01-09 18:43:00,40.0,32.0,30.35,SW,216,3.0,9.0,74,0.00,,,0.00,,2013-01-09 23:43:00,
2013-01-09 18:52:00,40.0,32.0,30.35,SW,216,3.0,9.0,74,0.00,,,0.00,,2013-01-09 23:52:00,
2013-01-09 19:03:00,39.0,32.0,30.37,WSW,246,3.0,7.0,76,0.00,,,0.00,,2013-01-10 00:03:00,
2013-01-09 19:12:00,39.0,32.0,30.37,WSW,246,3.0,7.0,76,0.00,,,0.00,,2013-01-10 00:12:00,
2013-01-09 19:22:00,38.0,31.0,30.39,SW,235,3.0,7.0,77,0.00,,,0.00,,2013-01-10 00:22:00,
2013-01-09 19:32:00,38.0,31.0,30.39,WSW,250,3.0,9.0,75,0.00,,,0.00,,2013-01-10 00:32:00,
2013-01-09 19:42:00,38.0,31.0,30.39,WSW,250,3.0,9.0,75,0.00,,,0.00,,2013-01-10 00:42:00,
2013-01-09 19:53:00,38.0,30.0,30.40,SSW,213,3.0,7.0,73,0.00,,,0.00,,2013-01-10 00:53:00,
2013-01-09 20:02:00,38.0,29.0,30.40,WSW,249,2.0,6.0,69,0.00,,,0.00,,2013-01-10 01:02:00,
2013-01-09 20:12:00,38.0,29.0,30.40,WSW,249,2.0,6.0,69,0.00,,,0.00,,2013-01-10 01:12:00,
2013-01-09 20:22:00,38.0,28.0,30.40,WSW,242,1.0,7.0,68,0.00,,,0.00,,2013-01-10 01:22:00,
2013-01-09 20:33:00,37.0,28.0,30.41,WSW,252,1.0,3.0,69,0.00,,,0.00,,2013-01-10 01:33:00,
2013-01-09 20:43:00,37.0,28.0,30.41,WSW,252,1.0,3.0,69,0.00,,,0.00,,2013-01-10 01:43:00,
2013-01-09 20:52:00,36.0,27.0,30.42,WSW,242,1.0,5.0,70,0.00,,,0.00,,2013-01-10 01:52:00,
2013-01-09 21:03:00,36.0,27.0,30.42,West,273,2.0,4.0,70,0.00,,,0.00,,2013-01-10 02:03:00,
2013-01-09 21:13:00,36.0,27.0,30.42,West,273,2.0,4.0,70,0.00,,,0.00,,2013-01-10 02:13:00,
2013-01-09 21:22:00,36.0,27.0,30.43,WSW,258,0.0,2.0,69,0.00,,,0.00,,2013-01-10 02:22:00,
2013-01-09 21:33:00,36.0,26.0,30.43,WSW,258,0.0,2.0,68,0.00,,,0.00,,2013-01-10 02:33:00,
2013-01-09 21:43:00,36.0,26.0,30.43,WSW,258,0.0,2.0,68,0.00,,,0.00,,2013-01-10 02:43:00,
2013-01-09 21:52:00,36.0,26.0,30.43,WSW,258,0.0,2.0,68,0.00,,,0.00,,2013-01-10 02:52:00,
2013-01-09 22:03:00,35.0,26.0,30.45,WSW,258,0.0,3.0,69,0.00,,,0.00,,2013-01-10 03:03:00,
2013-01-09 22:12:00,35.0,26.0,30.45,WSW,258,0.0,3.0,69,0.00,,,0.00,,2013-01-10 03:12:00,
2013-01-09 22:22:00,34.0,26.0,30.45,West,260,0.0,3.0,71,0.00,,,0.00,,2013-01-10 03:22:00,
2013-01-09 22:33:00,34.0,26.0,30.45,West,260,0.0,3.0,71,0.00,,,0.00,,2013-01-10 03:33:00,
2013-01-09 22:43:00,34.0,26.0,30.45,West,260,0.0,3.0,71,0.00,,,0.00,,2013-01-10 03:43:00,
2013-01-09 22:52:00,34.0,26.0,30.47,West,260,0.0,1.0,73,0.00,,,0.00,,2013-01-10 03:52:00,
2013-01-09 23:02:00,34.0,26.0,30.47,West,260,0.0,1.0,73,0.00,,,0.00,,2013-01-10 04:02:00,
2013-01-09 23:12:00,34.0,26.0,30.47,West,260,0.0,1.0,73,0.00,,,0.00,,2013-01-10 04:12:00,
2013-01-09 23:22:00,33.0,26.0,30.48,West,260,0.0,0.0,74,0.00,,,0.00,,2013-01-10 04:22:00,
2013-01-09 23:32:00,32.0,25.0,30.50,West,260,0.0,0.0,76,0.00,,,0.00,,2013-01-10 04:32:00,
2013-01-09 23:43:00,32.0,25.0,30.50,West,260,0.0,0.0,76,0.00,,,0.00,,2013-01-10 04:43:00,
2013-01-09 23:52:00,32.0,26.0,30.50,West,260,0.0,0.0,77,0.00,,,0.00,,2013-01-10 04:52:00,